Preview of NWS' New Version of Forecast
This preview is not operational and should not be used for support decisions.

Regional Weather Roundup (RWR)

Issued by Albuquerque, NM (ABQ)

                            
506 
NZUS01 KABQ 212310
RWRABQ
NEW MEXICO REGIONAL WEATHER ROUNDUP
NATIONAL WEATHER SERVICE  ALBUQUERQUE NM
500 PM MDT THU JUN 21 2018


-----NORTHERN NEW MEXICO AND NEARBY AREAS-----

  
CITY           SKY/WX    TMP DP  RH WIND       PRES   REMARKS
ALBUQUERQUE    FAIR      92  37  14 S8        30.08F                  
BELEN          FAIR      95  30  10 E6        30.07F                  
SOCORRO        FAIR      96  27   8 CALM      30.04F                  

CITY           SKY/WX    TMP DP  RH WIND       PRES   REMARKS
SANTA FE       MOSUNNY   91  31  11 S13       30.14F                  
LOS ALAMOS     SUNNY     83  47  28 NE8       30.23F                  
TAOS             N/A     90  25   9 W13G25    30.20F                  
ANGEL FIRE     FAIR      79  31  17 W21       30.31F                  
FARMINGTON     SUNNY     94  21   7 W14       30.05F                  
GRANTS         SUNNY     94  19   6 NE16      30.17F                  
GALLUP         SUNNY     95  18   6 W14G28    30.16F                  
FLAGSTAFF      SUNNY     87  23   9 VRB6G22   30.23F                  
DURANGO        SUNNY     90  24   9 W17       30.15F                  

CITY           SKY/WX    TMP DP  RH WIND       PRES   REMARKS
ALAMOSA        SUNNY     84  24  11 MISG      30.21F                  
DENVER         PTSUNNY   82  44  26 N12G17    30.11R                  
CLAYTON        SUNNY     90  48  23 S14G20    30.04F                  
RATON          PTSUNNY   89  40  17 S17G23    30.12F                  
LAS VEGAS      MOSUNNY   83  43  24 S20       30.18F                  
CLINES CORNERS MOSUNNY   85  40  20 W9        30.23F                  
SANTA ROSA     FAIR      94  50  22 SE8G20    30.04F                  
TUCUMCARI      SUNNY     97  52  21 W7G16     29.98F                  
CLOVIS (AFB)   NOT AVBL                                               
CLOVIS         MOSUNNY   92  55  28 SW7       30.05F                  
AMARILLO       SUNNY     91  57  31 MISG      29.99F                  

-----SOUTHERN NEW MEXICO AND NEARBY AREAS-----

  
CITY           SKY/WX    TMP DP  RH WIND       PRES   REMARKS
T OR C         SUNNY     99  37  11 VRB7      30.01F                  
DEMING         SUNNY    100  36  11 S6        29.98F                  
TUCSON         SUNNY    105  27   6 W10       29.90F HX  97           
EL PASO        MOSUNNY  102  34   9 E5        29.95F HX  96           
LAS CRUCES     SUNNY    101  40  12 E8        30.00F HX  96           

CITY           SKY/WX    TMP DP  RH WIND       PRES   REMARKS
ALAMOGORDO     SUNNY    102  35  10 NW6       30.00F HX  96           
ROSWELL        MOSUNNY   96  55  25 S9G21     29.98F                  
CARLSBAD       PTSUNNY   95  55  26 SE13      29.96F                  
HOBBS          MOSUNNY   91  57  31 SE9       30.02F